Time,TemperatureF,DewpointF,PressureIn,WindDirection,WindDirectionDegrees,WindSpeedMPH,WindSpeedGustMPH,Humidity,HourlyPrecipIn,Conditions,Clouds,dailyrainin,SoftwareType,DateUTC
2013-10-30 00:11:00,35.1,29.0,30.38,NNE,16,0.0,0.0,79,0.00,,,0.00,weatherlink.com 1.10,2013-10-30 04:11:00,
2013-10-30 00:26:00,35.0,29.0,30.38,NNE,15,0.0,0.0,79,0.00,,,0.00,weatherlink.com 1.10,2013-10-30 04:26:00,
2013-10-30 00:42:00,35.1,29.0,30.37,NNE,16,0.0,0.0,79,0.00,,,0.00,weatherlink.com 1.10,2013-10-30 04:42:00,
2013-10-30 00:57:00,35.1,29.0,30.38,NNE,16,0.0,0.0,79,0.00,,,0.00,weatherlink.com 1.10,2013-10-30 04:57:00,
2013-10-30 01:12:00,35.1,29.0,30.37,NNE,16,0.0,0.0,79,0.00,,,0.00,weatherlink.com 1.10,2013-10-30 05:12:00,
2013-10-30 01:29:00,35.3,29.0,30.37,NNE,16,0.0,0.0,79,0.00,,,0.00,weatherlink.com 1.10,2013-10-30 05:29:00,
2013-10-30 01:44:00,35.8,30.0,30.36,NNE,16,0.0,0.0,79,0.00,,,0.00,weatherlink.com 1.10,2013-10-30 05:44:00,
2013-10-30 01:59:00,36.1,30.0,30.36,NNE,16,0.0,0.0,79,0.00,,,0.00,weatherlink.com 1.10,2013-10-30 05:59:00,
2013-10-30 02:15:00,36.3,30.0,30.36,NNE,15,0.0,0.0,79,0.00,,,0.00,weatherlink.com 1.10,2013-10-30 06:15:00,
2013-10-30 02:29:00,36.3,31.0,30.36,NNE,15,0.0,0.0,80,0.00,,,0.00,weatherlink.com 1.10,2013-10-30 06:29:00,
2013-10-30 02:44:00,36.6,31.0,30.36,NNE,15,0.0,0.0,80,0.00,,,0.00,weatherlink.com 1.10,2013-10-30 06:44:00,
2013-10-30 02:59:00,36.8,31.0,30.36,NNE,15,0.0,0.0,79,0.00,,,0.00,weatherlink.com 1.10,2013-10-30 06:59:00,
2013-10-30 03:15:00,37.2,32.0,30.36,NNE,16,0.0,0.0,80,0.00,,,0.00,weatherlink.com 1.10,2013-10-30 07:15:00,
2013-10-30 03:30:00,37.5,32.0,30.36,NNE,16,0.0,0.0,79,0.00,,,0.00,weatherlink.com 1.10,2013-10-30 07:30:00,
2013-10-30 03:45:00,37.8,32.0,30.35,NNE,15,0.0,0.0,80,0.00,,,0.00,weatherlink.com 1.10,2013-10-30 07:45:00,
2013-10-30 04:01:00,38.0,33.0,30.34,NNE,16,0.0,0.0,81,0.00,,,0.00,weatherlink.com 1.10,2013-10-30 08:01:00,
2013-10-30 04:17:00,38.2,33.0,30.34,NNE,16,0.0,0.0,82,0.00,,,0.00,weatherlink.com 1.10,2013-10-30 08:17:00,
2013-10-30 04:32:00,38.2,33.0,30.33,NNE,15,0.0,0.0,82,0.00,,,0.00,weatherlink.com 1.10,2013-10-30 08:32:00,
2013-10-30 04:46:00,38.2,33.0,30.32,NNE,16,0.0,0.0,82,0.00,,,0.00,weatherlink.com 1.10,2013-10-30 08:46:00,
2013-10-30 05:01:00,38.0,33.0,30.33,NNE,15,0.0,0.0,82,0.00,,,0.00,weatherlink.com 1.10,2013-10-30 09:01:00,
2013-10-30 05:18:00,37.9,33.0,30.33,NNE,15,0.0,0.0,82,0.00,,,0.00,weatherlink.com 1.10,2013-10-30 09:18:00,
2013-10-30 05:32:00,38.0,33.0,30.33,NNE,15,0.0,0.0,83,0.00,,,0.00,weatherlink.com 1.10,2013-10-30 09:32:00,
2013-10-30 05:47:00,37.8,33.0,30.32,NNE,15,0.0,0.0,83,0.00,,,0.00,weatherlink.com 1.10,2013-10-30 09:47:00,
2013-10-30 06:03:00,37.7,33.0,30.33,NNE,16,0.0,0.0,83,0.00,,,0.00,weatherlink.com 1.10,2013-10-30 10:03:00,
2013-10-30 06:19:00,37.5,33.0,30.32,NNE,15,0.0,0.0,83,0.00,,,0.00,weatherlink.com 1.10,2013-10-30 10:19:00,
2013-10-30 06:35:00,37.5,33.0,30.33,NNE,16,0.0,0.0,84,0.00,,,0.00,weatherlink.com 1.10,2013-10-30 10:35:00,
2013-10-30 06:49:00,37.9,34.0,30.33,NNE,16,0.0,0.0,84,0.00,,,0.00,weatherlink.com 1.10,2013-10-30 10:49:00,
2013-10-30 07:04:00,38.0,34.0,30.33,NNE,15,0.0,0.0,84,0.00,,,0.00,weatherlink.com 1.10,2013-10-30 11:04:00,
2013-10-30 07:19:00,37.9,33.0,30.33,NNE,16,0.0,0.0,83,0.00,,,0.00,weatherlink.com 1.10,2013-10-30 11:19:00,
2013-10-30 07:34:00,37.8,32.0,30.33,NNE,15,0.0,0.0,81,0.00,,,0.00,weatherlink.com 1.10,2013-10-30 11:34:00,
2013-10-30 07:49:00,37.9,32.0,30.34,NNE,16,0.0,0.0,80,0.00,,,0.00,weatherlink.com 1.10,2013-10-30 11:49:00,
2013-10-30 08:05:00,38.7,33.0,30.34,NNE,15,0.0,0.0,80,0.00,,,0.00,weatherlink.com 1.10,2013-10-30 12:05:00,
2013-10-30 08:20:00,39.4,33.0,30.33,NNE,15,0.0,0.0,79,0.00,,,0.00,weatherlink.com 1.10,2013-10-30 12:20:00,
2013-10-30 08:35:00,40.0,34.0,30.32,NNE,16,0.0,1.0,80,0.00,,,0.00,weatherlink.com 1.10,2013-10-30 12:35:00,
2013-10-30 08:51:00,40.3,34.0,30.33,NNE,15,0.0,1.0,78,0.00,,,0.00,weatherlink.com 1.10,2013-10-30 12:51:00,
2013-10-30 09:06:00,40.6,34.0,30.34,NNE,16,0.0,0.0,78,0.00,,,0.00,weatherlink.com 1.10,2013-10-30 13:06:00,
2013-10-30 09:22:00,41.5,35.0,30.33,NNE,16,0.0,0.0,79,0.00,,,0.00,weatherlink.com 1.10,2013-10-30 13:22:00,
2013-10-30 09:37:00,42.9,36.0,30.32,NNE,15,0.0,1.0,77,0.00,,,0.00,weatherlink.com 1.10,2013-10-30 13:37:00,
2013-10-30 09:52:00,43.9,37.0,30.32,NNE,16,0.0,1.0,76,0.00,,,0.00,weatherlink.com 1.10,2013-10-30 13:52:00,
2013-10-30 10:07:00,45.5,36.0,30.32,NNE,16,0.0,1.0,70,0.00,,,0.00,weatherlink.com 1.10,2013-10-30 14:07:00,
2013-10-30 10:22:00,47.0,37.0,30.33,NNW,342,0.0,3.0,69,0.00,,,0.00,weatherlink.com 1.10,2013-10-30 14:22:00,
2013-10-30 10:39:00,47.8,37.0,30.33,NNW,344,0.0,1.0,67,0.00,,,0.00,weatherlink.com 1.10,2013-10-30 14:39:00,
2013-10-30 10:54:00,48.6,38.0,30.32,NNW,344,0.0,0.0,67,0.00,,,0.00,weatherlink.com 1.10,2013-10-30 14:54:00,
2013-10-30 11:09:00,48.8,38.0,30.32,NNW,344,0.0,1.0,66,0.00,,,0.00,weatherlink.com 1.10,2013-10-30 15:09:00,
2013-10-30 11:24:00,49.0,37.0,30.32,NNW,344,0.0,1.0,64,0.00,,,0.00,weatherlink.com 1.10,2013-10-30 15:24:00,
2013-10-30 11:39:00,48.8,37.0,30.32,West,259,0.0,1.0,64,0.00,,,0.00,weatherlink.com 1.10,2013-10-30 15:39:00,
2013-10-30 11:54:00,48.8,37.0,30.32,WSW,239,0.0,2.0,65,0.00,,,0.00,weatherlink.com 1.10,2013-10-30 15:54:00,
2013-10-30 12:10:00,49.3,39.0,30.31,WSW,239,0.0,2.0,67,0.00,,,0.00,weatherlink.com 1.10,2013-10-30 16:10:00,
2013-10-30 12:26:00,49.5,40.0,30.30,SSW,202,0.0,3.0,69,0.00,,,0.00,weatherlink.com 1.10,2013-10-30 16:26:00,
2013-10-30 12:40:00,50.0,41.0,30.30,WSW,238,0.0,1.0,70,0.00,,,0.00,weatherlink.com 1.10,2013-10-30 16:40:00,
2013-10-30 12:55:00,50.5,41.0,30.29,WSW,238,0.0,1.0,70,0.00,,,0.00,weatherlink.com 1.10,2013-10-30 16:55:00,
2013-10-30 13:11:00,51.2,41.0,30.28,WSW,249,0.0,1.0,69,0.00,,,0.00,weatherlink.com 1.10,2013-10-30 17:11:00,
2013-10-30 13:26:00,51.3,42.0,30.28,West,272,0.0,1.0,70,0.00,,,0.00,weatherlink.com 1.10,2013-10-30 17:26:00,
2013-10-30 13:41:00,51.2,42.0,30.27,West,271,1.0,2.0,70,0.00,,,0.00,weatherlink.com 1.10,2013-10-30 17:41:00,
2013-10-30 13:57:00,51.3,42.0,30.26,West,265,0.0,1.0,71,0.00,,,0.00,weatherlink.com 1.10,2013-10-30 17:57:00,
2013-10-30 14:12:00,51.7,43.0,30.25,West,264,0.0,2.0,71,0.00,,,0.00,weatherlink.com 1.10,2013-10-30 18:12:00,
2013-10-30 14:28:00,52.6,43.0,30.25,West,263,0.0,1.0,71,0.00,,,0.00,weatherlink.com 1.10,2013-10-30 18:28:00,
2013-10-30 14:42:00,52.8,44.0,30.25,West,263,0.0,2.0,71,0.00,,,0.00,weatherlink.com 1.10,2013-10-30 18:42:00,
2013-10-30 14:59:00,53.4,44.0,30.24,West,263,0.0,1.0,70,0.00,,,0.00,weatherlink.com 1.10,2013-10-30 18:59:00,
2013-10-30 15:14:00,53.5,45.0,30.24,SSW,213,0.0,3.0,72,0.00,,,0.00,weatherlink.com 1.10,2013-10-30 19:14:00,
2013-10-30 15:29:00,53.6,45.0,30.24,SW,230,0.0,1.0,72,0.00,,,0.00,weatherlink.com 1.10,2013-10-30 19:29:00,
2013-10-30 15:44:00,53.6,45.0,30.24,SW,231,0.0,0.0,72,0.00,,,0.00,weatherlink.com 1.10,2013-10-30 19:44:00,
2013-10-30 15:59:00,53.7,45.0,30.24,SW,230,0.0,0.0,72,0.00,,,0.00,weatherlink.com 1.10,2013-10-30 19:59:00,
2013-10-30 16:15:00,53.6,45.0,30.23,SW,230,0.0,0.0,73,0.00,,,0.00,weatherlink.com 1.10,2013-10-30 20:15:00,
2013-10-30 16:29:00,53.6,45.0,30.24,SW,231,0.0,0.0,72,0.00,,,0.00,weatherlink.com 1.10,2013-10-30 20:29:00,
2013-10-30 16:46:00,52.8,42.0,30.24,NE,40,0.0,3.0,67,0.00,,,0.00,weatherlink.com 1.10,2013-10-30 20:46:00,
2013-10-30 17:00:00,51.9,42.0,30.23,NE,37,0.0,1.0,69,0.00,,,0.00,weatherlink.com 1.10,2013-10-30 21:00:00,
2013-10-30 17:15:00,51.9,42.0,30.23,NE,38,0.0,2.0,69,0.00,,,0.00,weatherlink.com 1.10,2013-10-30 21:15:00,
2013-10-30 17:30:00,51.4,42.0,30.23,NE,41,0.0,1.0,69,0.00,,,0.00,weatherlink.com 1.10,2013-10-30 21:30:00,
2013-10-30 17:47:00,50.8,41.0,30.23,NE,41,0.0,0.0,70,0.00,,,0.00,weatherlink.com 1.10,2013-10-30 21:47:00,
2013-10-30 18:01:00,50.5,41.0,30.24,NE,41,0.0,0.0,71,0.00,,,0.00,weatherlink.com 1.10,2013-10-30 22:01:00,
2013-10-30 18:16:00,49.5,41.0,30.25,NE,41,0.0,0.0,72,0.00,,,0.00,weatherlink.com 1.10,2013-10-30 22:16:00,
2013-10-30 18:31:00,48.4,40.0,30.25,NE,41,0.0,0.0,74,0.00,,,0.00,weatherlink.com 1.10,2013-10-30 22:31:00,
2013-10-30 18:47:00,47.4,40.0,30.25,NE,41,0.0,0.0,76,0.00,,,0.00,weatherlink.com 1.10,2013-10-30 22:47:00,
2013-10-30 19:02:00,47.1,41.0,30.25,NE,41,0.0,0.0,80,0.00,,,0.00,weatherlink.com 1.10,2013-10-30 23:02:00,
2013-10-30 19:17:00,46.6,41.0,30.27,NE,41,0.0,0.0,81,0.00,,,0.00,weatherlink.com 1.10,2013-10-30 23:17:00,
2013-10-30 19:33:00,46.1,41.0,30.27,NE,41,0.0,0.0,82,0.00,,,0.00,weatherlink.com 1.10,2013-10-30 23:33:00,
2013-10-30 19:49:00,45.3,40.0,30.26,NE,41,0.0,0.0,82,0.00,,,0.00,weatherlink.com 1.10,2013-10-30 23:49:00,
2013-10-30 20:04:00,44.8,40.0,30.27,NE,41,0.0,0.0,82,0.00,,,0.00,weatherlink.com 1.10,2013-10-31 00:04:00,
2013-10-30 20:19:00,44.2,39.0,30.26,NE,41,0.0,0.0,83,0.00,,,0.00,weatherlink.com 1.10,2013-10-31 00:19:00,
2013-10-30 20:34:00,43.7,39.0,30.26,NE,41,0.0,0.0,84,0.00,,,0.00,weatherlink.com 1.10,2013-10-31 00:34:00,
2013-10-30 20:49:00,43.1,39.0,30.27,NE,41,0.0,0.0,84,0.00,,,0.00,weatherlink.com 1.10,2013-10-31 00:49:00,
2013-10-30 21:04:00,42.8,39.0,30.27,NE,41,0.0,0.0,85,0.00,,,0.00,weatherlink.com 1.10,2013-10-31 01:04:00,
2013-10-30 21:20:00,43.2,39.0,30.27,NE,41,0.0,0.0,86,0.00,,,0.00,weatherlink.com 1.10,2013-10-31 01:20:00,
2013-10-30 21:35:00,42.7,39.0,30.27,NE,41,0.0,0.0,85,0.00,,,0.00,weatherlink.com 1.10,2013-10-31 01:35:00,
2013-10-30 21:50:00,42.1,38.0,30.27,NE,41,0.0,0.0,86,0.00,,,0.00,weatherlink.com 1.10,2013-10-31 01:50:00,
2013-10-30 22:06:00,41.9,38.0,30.27,NE,41,0.0,0.0,86,0.00,,,0.00,weatherlink.com 1.10,2013-10-31 02:06:00,
2013-10-30 22:21:00,41.6,38.0,30.27,NE,41,0.0,0.0,86,0.00,,,0.00,weatherlink.com 1.10,2013-10-31 02:21:00,
2013-10-30 22:37:00,41.6,38.0,30.27,NE,41,0.0,0.0,87,0.00,,,0.00,weatherlink.com 1.10,2013-10-31 02:37:00,
2013-10-30 22:51:00,41.6,38.0,30.28,NE,41,0.0,0.0,87,0.00,,,0.00,weatherlink.com 1.10,2013-10-31 02:51:00,
2013-10-30 23:06:00,41.5,38.0,30.28,NE,41,0.0,0.0,88,0.00,,,0.00,weatherlink.com 1.10,2013-10-31 03:06:00,
2013-10-30 23:22:00,42.0,39.0,30.28,NE,41,0.0,0.0,88,0.00,,,0.00,weatherlink.com 1.10,2013-10-31 03:22:00,
2013-10-30 23:37:00,42.9,40.0,30.27,NE,41,0.0,0.0,89,0.00,,,0.00,weatherlink.com 1.10,2013-10-31 03:37:00,
2013-10-30 23:52:00,42.9,40.0,30.27,NE,41,0.0,0.0,89,0.00,,,0.00,weatherlink.com 1.10,2013-10-31 03:52:00,